     2              OBSERVATION DATA    G (GPS)             RINEX VERSION / TYPE
RGRINEXO V2.5.5 UX AUSLIG 27-JUL-03 13:01                   PGM / RUN BY / DATE
Australian Regional GPS Network (ARGN)                      COMMENT
MAWSON Antarctica AUS64                                     COMMENT
0.000000000000 HARDWARE CALIBRATION (S)                     COMMENT
0.000000000000 CLOCK OFFSET (S)                             COMMENT
BIT 2 OF LLI (+4) FLAGS DATA COLLECTED UNDER "AS" CONDITION COMMENT
maw1                                                        MARKER NAME
66004M001                                                   MARKER NUMBER
auslig auslig                                               OBSERVER / AGENCY
C119U AOA ICS-4000Z ACT 00.12.06 / 3.3.32.4                 REC # / TYPE / VERS
275 AOAD/M_T DOME                                           ANT # / TYPE
  1111290.0000  2168911.0000 -5874491.0000                  APPROX POSITION XYZ
        0.0035        0.0000        0.0000                  ANTENNA: DELTA H/E/N
     1     1                                                WAVELENGTH FACT L1/2
     5    C1    L1    L2    P2    P1                        # / TYPES OF OBSERV
    30                                                      INTERVAL
  2003     7    27    12     0    0.000000                  TIME OF FIRST OBS
                                                            END OF HEADER
 03  7 27 12  0  0.0000000  0  8 07 09 11 14 20 23 28 31
                  -4368319.346 1  -3403884.635 5  23374515.774
  23374514.880    -2686986.024 2  -2093752.857 5  24469062.743
  24469062.269   -21192423.541 5 -16513566.781 8  20606110.227
  20606111.515    -5911494.082 2  -4606357.129 5  23557209.241
  23557209.959    -1176095.352 1   -916437.204 4  24748291.039
  24748290.851   -11018067.839 2  -8585498.333 5  22764502.792
  22764501.614   -15406097.798 5 -12004750.560 6  21463414.747
  21463415.223   -11823975.354 3  -9213481.427 6  22438216.728    22438216.273
 03  7 27 12  0 30.0000000  0  8 07 09 11 14 20 23 28 31
                  -4479587.102 1  -3490586.797 5  23353343.860
  23353341.730    -2736352.151 2  -2132220.017 5  24459667.612
  24459668.900   -21216360.567 5 -16532218.922 8  20601555.475
  20601556.412    -5979750.013 2  -4659543.577 5  23544220.621
  23544221.138    -1293256.800 1  -1007731.749 4  24725996.974
  24725994.525   -10928267.208 2  -8515523.912 5  22781591.130
  22781590.308   -15388282.763 5 -11990868.744 6  21466804.792
  21466805.340   -11734874.416 3  -9144052.137 6  22455172.085    22455171.394
 03  7 27 12  1  0.0000000  0  8 07 09 11 14 20 23 28 31
                  -4590637.276 1  -3577119.475 5  23332211.314
  23332209.185    -2785242.509 1  -2170316.476 5  24450364.361
  24450365.012   -21239773.810 5 -16550463.020 8  20597099.599
  20597101.035    -6047525.316 2  -4712355.441 5  23531323.548
  23531323.199    -1410330.502 1  -1098957.846 4  24703717.857
  24703716.619   -10837987.261 2  -8445175.876 5  22798770.896
  22798769.580   -15369829.213 5 -11976489.397 6  21470316.456
  21470316.970   -11645470.359 2  -9074386.619 6  22472184.898    22472184.389
 03  7 27 12  1 30.0000000  0  8 07 09 11 14 20 23 28 31
                  -4701469.946 1  -3663482.572 5  23311121.036
  23311118.384    -2833658.025 2  -2208043.052 5  24441151.547
  24441151.482   -21262665.591 5 -16568300.790 8  20592743.972
  20592744.869    -6114820.478 2  -4764793.424 5  23518517.225
  23518517.978    -1527316.577 1  -1190115.631 5  24681456.558
  24681454.647   -10747233.826 2  -8374458.762 5  22816039.406
  22816039.465   -15350740.505 5 -11961615.120 6  21473948.924
  21473949.510   -11555767.763 2  -9004488.532 6  22489254.829    22489254.498
 03  7 27 12  2  0.0000000  0  8 07 09 11 14 20 23 28 31
                  -4812057.962 1  -3749655.021 5  23290076.204
  23290074.434    -2881571.754 1  -2245378.592 5  24432034.321
  24432033.709   -21285010.015 5 -16585712.054 8  20588491.560
  20588492.865    -6181606.814 2  -4816834.564 5  23505808.472
  23505808.037    -1644187.936 1  -1281184.034 5  24659216.856
  24659216.698   -10655985.374 2  -8303355.976 5  22833404.659
  22833403.300   -15330992.157 5 -11946226.775 6  21477706.783
  21477707.507   -11465743.160 2  -8934339.478 6  22506385.953    22506385.665
 03  7 27 12  2 30.0000000  0  8 07 09 11 14 20 23 28 31
                  -4922410.528 2  -3835644.001 5  23269076.340
  23269074.540    -2928993.733 1  -2282330.848 5  24423010.437
  24423010.163   -21306818.537 5 -16602705.724 8  20584342.101
  20584342.851    -6247894.472 2  -4868487.246 5  23493194.444
  23493195.243    -1760953.891 1  -1372170.355 4  24636997.857
  24636995.157   -10564257.542 2  -8231880.057 5  22850858.881
  22850858.548   -15310596.737 5 -11930334.302 6  21481588.112
  21481588.461   -11375410.278 2  -8863950.263 6  22523575.774    22523575.690
 03  7 27 12  3  0.0000000  0  8 07 09 11 14 20 23 28 31
                  -5032547.876 1  -3921465.261 5  23248118.574
  23248116.962    -2975944.625 1  -2318915.804 5  24414075.195
  24414075.406   -21328113.298 5 -16619299.072 8  20580289.196
  20580290.631    -6313702.960 2  -4919766.393 5  23480671.126
  23480670.915    -1877634.720 1  -1463090.315 4  24614792.094
  24614792.772   -10472074.626 2  -8160049.270 5  22868401.994
  22868400.733   -15289577.305 5 -11913955.549 6  21485587.979
  21485588.340   -11284793.257 2  -8793339.664 6  22540819.881    22540819.508
 03  7 27 12  3 30.0000000  0  8 07 09 11 14 20 23 28 31
                  -5142452.050 1  -4007104.824 5  23227204.278
  23227202.875    -3022407.879 1  -2355120.921 5  24405234.316
  24405233.940   -21348878.148 5 -16635479.470 8  20576338.460
  20576339.253    -6379014.850 2  -4970658.538 5  23468242.767
  23468242.884    -1994212.364 1  -1553929.976 5  24592609.577
  24592606.785   -10379423.910 2  -8087853.603 5  22886030.766
  22886030.831   -15267919.265 5 -11897079.158 6  21489709.330
  21489709.946   -11193878.366 2  -8722496.985 6  22558120.489    22558120.150
 03  7 27 12  4  0.0000000  0  8 07 09 11 14 20 23 28 31
                  -5252125.789 1  -4092564.897 5  23206333.669
  23206332.404    -3068387.294 1  -2390949.163 5  24396484.161
  24396483.693   -21369117.815 5 -16651250.630 8  20572486.277
  20572487.801    -6443832.517 2  -5021165.627 5  23455907.973
  23455908.091    -2110689.288 1  -1644691.141 5  24570444.173
  24570443.654   -10286314.303 2  -8015300.359 5  22903749.460
  22903749.103   -15245628.537 5 -11879709.797 6  21493951.091
  21493951.830   -11102672.305 3  -8651427.424 6  22575476.602    22575475.906
 03  7 27 12  4 30.0000000  0  8 07 09 11 14 20 23 28 31
                  -5361565.676 2  -4177842.734 5  23185508.643
  23185506.393    -3113879.600 1  -2426397.855 5  24387828.747
  24387827.483   -21388830.489 5 -16666611.116 8  20568735.688
  20568736.394    -6508152.257 2  -5071284.553 5  23443668.048
  23443668.966    -2227061.954 1  -1735371.048 5  24548298.405
  24548297.744   -10192748.471 2  -7942391.801 5  22921553.899
  22921554.147   -15222704.754 5 -11861847.186 6  21498313.457
  21498314.170   -11011175.726 3  -8580131.398 6  22592887.629    22592887.069
 03  7 27 12  5  0.0000000  0  8 07 09 11 14 20 23 28 31
                  -5470765.164 2  -4262933.257 5  23164728.240
  23164726.694    -3158879.653 1  -2461462.930 5  24379265.657
  24379264.407   -21408012.314 5 -16681558.002 8  20565084.891
  20565086.388    -6571968.875 2  -5121011.784 5  23431524.222
  23431524.600    -2343324.308 1  -1825964.977 4  24526174.727
  24526173.646   -10098725.268 2  -7869126.922 5  22939447.649
  22939445.673   -15199144.989 5 -11843488.991 6  21502796.742
  21502797.446   -10919386.768 2  -8508607.579 6  22610354.555    22610354.481
 03  7 27 12  5 30.0000000  0  8 07 09 11 14 20 23 28 31
                  -5579722.871 2  -4347835.358 5  23143994.423
  23143992.833    -3203386.704 1  -2496143.917 5  24370795.161
  24370794.860   -21426663.614 5 -16696091.495 8  20561536.355
  20561537.109    -6635279.591 2  -5170344.664 5  23419476.140
  23419477.179    -2459474.540 1  -1916471.593 4  24504071.841
  24504070.381   -10004248.458 2  -7795508.614 5  22957424.427
  22957423.940   -15174950.425 5 -11824636.099 6  21507400.890
  21507401.519   -10827307.691 2  -8436857.652 6  22627876.755    22627876.308
 03  7 27 12  6  0.0000000  0  8 07 09 11 14 20 23 28 31
                  -5688439.658 2  -4432549.745 5  23123306.578
  23123305.201    -3247402.642 1  -2530442.367 5  24362420.987
  24362420.086   -21444787.141 5 -16710213.734 8  20558086.905
  20558088.371    -6698086.185 2  -5219284.898 5  23407524.346
  23407524.826    -2575513.764 1  -2006891.611 5  24481991.071
  24481991.295    -9909324.366 2  -7721541.620 5  22975488.941
  22975487.397   -15150125.713 5 -11805292.213 6  21512124.902
  21512125.506   -10734943.940 2  -8364885.861 6  22645453.069    22645452.637
 03  7 27 12  6 30.0000000  0  8 07 09 11 14 20 23 28 31
                  -5796903.253 2  -4517066.872 5  23102666.515
  23102664.450    -3290915.324 1  -2564348.532 5  24354141.034
  24354139.212   -21462372.714 5 -16723916.793 8  20554741.114
  20554741.943    -6760375.806 2  -5267822.294 5  23395671.487
  23395672.103    -2691429.406 1  -2097215.376 5  24459932.299
  24459930.282    -9813946.920 2  -7647221.594 5  22993638.040
  22993638.156   -15124661.482 5 -11785449.926 6  21516970.605
  21516970.938   -10642287.189 2  -8292685.815 6  22663085.004    22663084.782
 03  7 27 12  7  0.0000000  0  8 07 09 11 14 20 23 28 31
                  -5905112.120 2  -4601385.469 5  23082074.698
  23082073.418    -3333923.812 1  -2597861.307 5  24345954.819
  24345954.675   -21479420.733 5 -16737200.967 8  20551496.320
  20551497.785    -6822147.100 2  -5315955.731 5  23383916.539
  23383917.202    -2807220.248 1  -2187441.950 5  24437896.779
  24437896.913    -9718119.848 2  -7572551.219 5  23011873.284
  23011872.777   -15098559.909 5 -11765111.024 6  21521937.501
  21521937.787   -10549340.290 2  -8220259.655 5  22680772.073    22680771.814
 03  7 27 12  7 30.0000000  0  8 07 09 11 14 20 23 28 31
                  -6013076.207 2  -4685513.215 5  23061530.468
  23061528.032    -3376440.307 1  -2630990.824 5  24337864.629
  24337863.916   -21495943.766 5 -16750076.046 8  20548352.762
  20548353.433    -6883410.244 2  -5363693.165 5  23372258.305
  23372258.864    -2922896.201 1  -2277578.995 5  24415886.005
  24415883.904    -9621859.152 2  -7497543.030 5  23030191.425
  23030191.397   -15071834.318 5 -11744285.827 6  21527023.083
  21527023.832   -10456117.523 2  -8147618.515 5  22698511.540    22698511.531
 03  7 27 12  8  0.0000000  0  8 07 09 11 14 20 23 28 31
                  -6120791.293 2  -4769446.981 5  23041032.121
  23041030.889    -3418461.490 1  -2663734.507 5  24329867.197
  24329867.173   -21511939.371 5 -16762540.151 8  20545308.136
  20545309.626    -6944161.055 2  -5411031.371 5  23360697.806
  23360698.867    -3038452.846 1  -2367623.060 5  24393896.346
  24393894.393    -9525165.532 2  -7422197.375 5  23048591.300
  23048590.855   -15044483.924 5 -11722973.756 6  21532227.552
  21532228.364   -10362618.604 2  -8074762.180 5  22716304.000    22716303.697
 03  7 27 12  8 30.0000000  0  8 07 09 11 14 20 23 28 31
                  -6228243.455 2  -4853175.956 5  23020585.122
  23020583.216    -3459972.844 1  -2696080.514 5  24321967.019
  24321966.650   -21527395.367 5 -16774583.793 8  20542367.790
  20542368.478    -7004385.662 2  -5457959.569 5  23349237.491
  23349237.776    -3153876.248 1  -2457563.306 5  24371930.961
  24371930.889    -9428030.741 2  -7346507.982 5  23067076.076
  23067075.081   -15016498.052 5 -11701166.519 6  21537553.201
  21537553.825   -10268833.831 2  -8001683.130 5  22734150.722    22734150.143
 03  7 27 12  9  0.0000000  0  8 07 09 11 14 20 23 28 31
                  -6335429.928 2  -4936697.885 5  23000187.771
  23000186.865    -3500974.783 1  -2728030.162 5  24314165.637
  24314164.681   -21542311.453 5 -16786206.754 8  20539528.533
  20539530.060    -7064081.526 2  -5504475.813 5  23337877.443
  23337878.295    -3269163.908 1  -2547397.847 5  24349992.351
  24349992.226    -9330457.988 2  -7270477.486 5  23085644.114
  23085642.307   -14987877.413 5 -11678864.674 6  21542999.556
  21543000.005   -10174764.776 2  -7928382.537 5  22752051.042    22752050.932
 03  7 27 12  9 30.0000000  0  8 07 09 11 14 20 23 28 31
                  -6442344.720 2  -5020008.116 5  22979842.938
  22979841.016    -3541461.113 1  -2759577.889 5  24306460.627
  24306460.727   -21556683.694 5 -16797405.912 8  20536794.399
  20536795.086    -7123242.748 2  -5550575.335 5  23326619.444
  23326620.238    -3384309.585 1  -2637121.683 5  24328080.846
  24328080.325    -9232446.347 2  -7194104.781 5  23104294.963
  23104294.246   -14958619.468 4 -11656066.199 6  21548566.986
  21548567.569   -10080409.688 2  -7854859.046 5  22770006.631    22770005.778
 03  7 27 12 10  0.0000000  0  8 07 09 11 14 20 23 28 31
                  -6548997.299 2  -5103114.043 5  22959547.366
  22959545.816    -3581442.610 1  -2790732.224 5  24298853.824
  24298852.568   -21570523.540 5 -16808190.185 8  20534160.084
  20534161.540    -7181879.140 2  -5596266.075 5  23315461.583
  23315461.979    -3499322.693 1  -2726742.192 5  24306194.945
  24306194.154    -9134011.249 2  -7117402.096 5  23123025.862
  23123025.824   -14928737.031 4 -11632781.061 6  21554253.237
  21554253.890    -9985782.321 2  -7781123.454 5  22788013.140    22788012.877
 03  7 27 12 10 30.0000000  0  8 07 09 11 14 20 23 28 31
                  -6655392.744 2  -5186019.580 5  22939300.935
  22939299.373    -3620925.516 1  -2821498.160 5  24291339.003
  24291338.806   -21583838.824 5 -16818565.723 8  20531627.036
  20531627.722    -7239995.654 2  -5641551.566 5  23304402.107
  23304403.127    -3614208.481 1  -2816263.534 5  24284332.897
  24284330.858    -9035163.762 2  -7040378.226 5  23141836.101
  23141835.288   -14898239.150 4 -11609016.431 6  21560056.709
  21560057.455    -9890892.110 2  -7707183.066 5  22806070.482    22806070.148
 03  7 27 12 11  0.0000000  0  8 07 09 11 14 20 23 28 31
                  -6761520.594 2  -5268716.601 5  22919105.807
  22919103.723    -3659900.652 2  -2851868.617 5  24283923.683
  24283922.489   -21596621.088 5 -16828525.925 8  20529193.737
  20529195.269    -7297582.692 2  -5686424.633 5  23293444.098
  23293443.898    -3728956.617 1  -2905677.577 5  24262496.716
  24262495.745    -8935898.520 1  -6963028.723 5  23160725.643
  23160725.133   -14867118.935 4 -11584766.920 6  21565978.677
  21565979.501    -9795732.851 2  -7633033.059 5  22824178.137    22824178.221
 03  7 27 12 11 30.0000000  0  8 07 09 11 14 20 23 28 31
                  -6867382.334 2  -5351206.295 5  22898960.450
  22898958.899    -3698369.794 2  -2881844.584 5  24276602.982
  24276602.058   -21608873.992 5 -16838073.660 8  20526863.017
  20526863.650    -7354641.806 2  -5730886.428 5  23282585.810
  23282586.418    -3843568.300 1  -2994985.331 5  24240687.040
  24240686.077    -8836224.395 1  -6885361.374 5  23179694.973
  23179693.266   -14835380.984 4 -11560036.055 6  21572018.302
  21572018.917    -9700309.971 2  -7558677.579 5  22842337.238    22842336.888
 03  7 27 12 12  0.0000000  0  8 07 09 11 14 20 23 28 31
                  -6972965.025 2  -5433478.570 5  22878869.157
  22878867.546    -3736321.616 2  -2911417.372 5  24269380.541
  24269380.513   -21620586.642 5 -16847200.400 8  20524633.215
  20524634.790    -7411160.094 2  -5774926.818 5  23271831.024
  23271831.930    -3958030.827 1  -3084176.872 5  24218906.129
  24218904.432    -8736131.422 1  -6807367.072 5  23198740.006
  23198740.825   -14803016.505 4 -11534817.009 6  21578177.059
  21578177.805    -9604615.090 2  -7484110.172 5  22860546.683    22860546.633
 03  7 27 12 12 30.0000000  0  8 07 09 11 14 20 23 28 31
                  -7078273.464 2  -5515537.133 5  22858829.266
  22858827.680    -3773762.097 2  -2940591.898 5  24262256.025
  24262254.933   -21631766.173 5 -16855911.720 8  20522506.771
  20522507.371    -7467141.708 2  -5818548.676 5  23261178.004
  23261178.076    -4072348.798 1  -3173255.717 5  24197151.276
  24197150.430    -8635631.668 1  -6729055.998 5  23217866.551
  23217865.694   -14770033.572 4 -11509116.045 6  21584453.561
  21584454.036    -9508657.014 2  -7409337.646 5  22878807.478    22878807.077
 03  7 27 12 13  0.0000000  0  8 07 09 11 14 20 23 28 31
                  -7183298.174 2  -5597374.598 5  22838844.127
  22838842.290    -3810683.165 2  -2969361.806 5  24255230.477
  24255229.935   -21642405.579 5 -16864202.177 8  20520481.250
  20520482.753    -7522578.788 2  -5861746.443 5  23250628.495
  23250629.066    -4186513.077 1  -3262214.843 5  24175426.838
  24175426.578    -8534720.909 1  -6650424.665 5  23237068.690
  23237068.364   -14736426.321 4 -11482928.579 6  21590848.799
  21590849.468    -9412430.851 2  -7334356.241 5  22897118.515    22897118.179
 03  7 27 12 13 30.0000000  0  8 07 09 11 14 20 23 28 31
                  -7288033.644 2  -5678986.581 5  22818913.368
  22818911.914    -3847080.132 2  -2997723.307 5  24248304.407
  24248304.393   -21652501.403 5 -16872069.057 8  20518560.923
  20518561.608    -7577466.323 2  -5904516.192 5  23240184.390
  23240184.448    -4300517.945 1  -3351049.694 5  24153732.753
  24153731.086    -8433398.275 1  -6571471.825 5  23256350.352
  23256347.691   -14702192.913 4 -11456253.184 6  21597363.219
  21597363.657    -9315935.323 2  -7259164.912 5  22915481.023    22915481.171
 03  7 27 12 14  0.0000000  0  8 07 09 11 14 20 23 28 31
                  -7392486.539 2  -5760378.355 5  22799036.367
  22799034.861    -3882960.814 2  -3025682.390 5  24241476.953
  24241477.012   -21662062.951 5 -16879519.639 8  20516740.425
  20516742.100    -7631809.822 2  -5946861.459 5  23229842.475
  23229842.972    -4414370.346 1  -3439765.754 5  24132067.339
  24132065.079    -8331677.792 2  -6492209.193 5  23275706.792
  23275705.329   -14667343.944 4 -11429098.136 6  21603994.867
  21603995.201    -9219181.545 2  -7183772.365 5  22933892.691    22933892.451
 03  7 27 12 14 30.0000000  0  8 07 09 11 14 20 23 28 31
                  -7496649.949 2  -5841544.587 5  22779215.208
  22779212.425    -3918319.008 2  -3053234.274 5  24234748.113
  24234748.165   -21671085.289 5 -16886550.044 8  20515024.641
  20515025.181    -7685604.189 2  -5988779.157 5  23219606.025
  23219605.988    -4528063.085 1  -3528357.435 5  24110431.977
  24110430.858    -8229555.871 2  -6412632.912 5  23295139.943
  23295138.409   -14631876.100 4 -11401460.831 6  21610744.059
  21610744.422    -9122166.451 2  -7108176.201 5  22952354.141    22952354.564
 03  7 27 12 15  0.0000000  0  8 07 09 11 14 20 23 28 31
                  -7600532.995 2  -5922492.373 5  22759446.325
  22759444.969    -3953165.190 2  -3080387.083 5  24228117.308
  24228117.514   -21679579.859 5 -16893169.171 8  20513407.127
  20513408.779    -7738858.479 2  -6030276.073 5  23209472.132
  23209472.475    -4641605.269 1  -3616831.812 5  24088825.130
  24088824.756    -8127049.780 1  -6332757.651 5  23314645.271
  23314644.901   -14595802.241 4 -11373351.295 6  21617608.817
  21617609.303    -9024903.708 2  -7032387.052 5  22970862.817    22970862.614
 03  7 27 12 15 30.0000000  0  8 07 09 11 14 20 23 28 31
                  -7704125.874 2  -6003214.035 5  22739733.862
  22739731.731    -3987490.989 2  -3107134.274 5  24221584.962
  24221585.158   -21687539.457 5 -16899371.426 8  20511893.409
  20511894.091    -7791563.601 2  -6071345.259 5  23199442.982
  23199442.960    -4754987.181 1  -3705181.252 5  24067249.973
  24067248.565    -8024154.242 1  -6252578.614 5  23334224.766
  23334224.292   -14559116.449 4 -11344764.955 6  21624589.666
  21624590.460    -8927387.884 2  -6956400.690 5  22989419.212    22989419.043
 03  7 27 12 16  0.0000000  0  8 07 09 11 14 20 23 28 31
                  -7807427.860 2  -6083709.075 5  22720075.828
  22720074.133    -4021297.171 2  -3133476.606 5  24215151.594
  24215151.891   -21694965.556 5 -16905157.999 8  20510479.386
  20510480.905    -7843718.958 2  -6111986.143 5  23189518.081
  23189518.289    -4868207.981 1  -3793405.175 5  24045703.471
  24045703.066    -7920875.153 2  -6172101.039 5  23353878.036
  23353877.138   -14521821.477 4 -11315703.936 6  21631686.707
  21631687.226    -8829622.514 2  -6880219.896 5  23008023.439    23008023.252
 03  7 27 12 16 30.0000000  0  8 07 09 11 14 20 23 28 31
                  -7910425.532 2  -6163966.988 5  22700475.932
  22700474.432    -4054572.018 2  -3159405.101 5  24208820.112
  24208819.346   -21701846.964 5 -16910520.119 8  20509170.837
  20509171.389    -7895311.483 2  -6152188.500 5  23179701.007
  23179701.274    -4981254.408 1  -3881493.235 5  24024191.384
  24024190.882    -7817204.781 1  -6091318.832 5  23373606.005
  23373605.706   -14483908.011 4 -11286160.972 6  21638901.300
  21638902.002    -8731598.361 2  -6803837.420 5  23026676.764    23026676.213
 03  7 27 12 17  0.0000000  0  8 07 09 11 14 20 23 28 31
                  -8013120.629 2  -6243989.131 5  22680934.087
  22680932.128    -4087317.882 2  -3184921.315 5  24202588.116
  24202588.286   -21708188.003 5 -16915461.188 8  20507963.151
  20507964.781    -7946342.217 2  -6191952.547 5  23169989.712
  23169990.532    -5094128.189 1  -3969446.750 5  24002712.858
  24002711.458    -7713150.379 1  -6010237.602 5  23393406.242
  23393406.817   -14445381.516 4 -11256140.327 6  21646232.639
  21646233.289    -8633321.625 2  -6727258.176 5  23045378.093    23045377.388
 03  7 27 12 17 30.0000000  0  8 07 09 11 14 20 23 28 31
                  -8115509.330 2  -6323772.541 5  22661449.852
  22661448.821    -4119532.685 2  -3210023.866 5  24196457.830
  24196458.692   -21713987.388 5 -16919980.226 8  20506860.563
  20506861.256    -7996809.606 2  -6231277.929 5  23160386.213
  23160386.645    -5206825.541 1  -4057262.746 5  23981267.026
  23981265.784    -7608713.671 1  -5928858.493 5  23413281.970
  23413280.453   -14406241.943 4 -11225641.956 6  21653680.564
  21653681.185    -8534792.797 2  -6650482.482 5  23064127.618    23064127.648
 03  7 27 12 18  0.0000000  0  8 07 09 11 14 20 23 28 31
                  -8217606.043 2  -6403328.413 5  22642021.552
  22642020.286    -4151231.691 2  -3234724.350 5  24190425.990
  24190426.371   -21719261.929 5 -16924090.251 8  20505855.925
  20505857.611    -8046727.289 2  -6270174.619 5  23150887.147
  23150887.683    -5319361.054 1  -4144952.673 5  23959851.871
  23959851.721    -7503914.889 1  -5847197.379 5  23433223.424
  23433223.211   -14366508.008 4 -11194680.448 6  21661241.817
  21661242.444    -8436030.568 2  -6573524.873 5  23082921.633    23082921.081
 03  7 27 12 18 30.0000000  0  8 07 09 11 14 20 23 28 31
                  -8319402.568 2  -6482650.352 5  22622650.093
  22622649.017    -4182408.720 2  -3259018.209 5  24184493.534
  24184492.892   -21724005.726 5 -16927786.698 8  20504954.128
  20504954.721    -8096088.629 2  -6308638.023 5  23141494.141
  23141494.530    -5431726.617 2  -4232510.187 5  23938469.341
  23938469.563    -7398752.272 1  -5765253.232 5  23453236.217
  23453235.272   -14326175.248 4 -11163252.328 6  21668916.761
  21668917.461    -8337031.093 2  -6496382.340 5  23101760.169    23101760.099
 03  7 27 12 19  0.0000000  0  8 07 09 11 14 20 23 28 31
                  -8420875.954 2  -6561720.468 5  22603340.336
  22603339.029    -4213042.222 2  -3282888.476 5  24178664.077
  24178663.606   -21728198.472 5 -16931053.742 8  20504155.271
  20504156.837    -8144870.660 2  -6346649.843 5  23132210.863
  23132211.785    -5543899.226 2  -4319917.366 5  23917123.626
  23917122.436    -7293205.896 1  -5683009.084 5  23473320.382
  23473318.961   -14285224.748 4 -11131342.915 6  21676709.632
  21676710.230    -8237775.798 2  -6419040.434 5  23120647.583    23120647.682
 03  7 27 12 19 30.0000000  0  8 07 09 11 14 20 23 28 31
                  -8522046.603 2  -6640554.711 5  22584088.378
  22584086.858    -4243153.501 2  -3306351.733 5  24172934.324
  24172934.266   -21731863.020 5 -16933909.213 8  20503458.895
  20503459.584    -8193094.012 2  -6384226.015 5  23123033.841
  23123034.549    -5655899.119 2  -4407189.968 5  23895810.071
  23895810.033    -7187304.361 1  -5600488.617 5  23493474.538
  23493472.404   -14243680.742 4 -11098971.001 6  21684615.267
  21684615.832    -8138289.606 2  -6341518.669 5  23139579.351    23139579.431
 03  7 27 12 20  0.0000000  0  8 07 09 11 14 20 23 28 31
                  -8622902.419 2  -6719143.658 5  22564895.826
  22564894.598    -4272731.819 2  -3329399.590 5  24167305.563
  24167305.082   -21734989.665 5 -16936345.577 8  20502862.846
  20502864.479    -8240748.025 2  -6421358.892 5  23113965.539
  23113965.779    -5767714.349 2  -4494318.685 5  23874532.212
  23874532.117    -7081039.217 1  -5517684.241 5  23513695.367
  23513693.702   -14201534.855 4 -11066130.022 6  21692635.295
  21692635.924    -8038564.529 2  -6263810.789 5  23158556.733    23158556.287
 03  7 27 12 20 30.0000000  0  8 07 09 11 14 20 23 28 31
                  -8723429.463 2  -6797476.444 5  22545766.105
  22545764.778    -4301765.252 2  -3352022.988 5  24161780.151
  24161780.079   -21737566.889 5 -16938353.799 8  20502373.532
  20502374.200    -8287819.554 2  -6458038.071 5  23105008.173
  23105008.771    -5879330.744 2  -4581292.444 5  23853292.579
  23853292.699    -6974404.573 1  -5434592.520 5  23533985.875
  23533985.656   -14158777.524 4 -11032812.599 6  21700771.740
  21700772.146    -7938591.075 2  -6185909.404 5  23177580.351    23177581.218
 03  7 27 12 21  0.0000000  0  8 07 09 11 14 20 23 28 31
                  -8823644.504 2  -6875566.086 5  22526695.922
  22526694.510    -4330271.833 1  -3374235.901 5  24156355.914
  24156355.529   -21739614.298 5 -16939949.172 8  20501982.889
  20501984.553    -8334325.595 2  -6494276.713 5  23096158.703
  23096159.120    -5990765.299 2  -4668124.462 5  23832087.177
  23832086.796    -6867421.536 1  -5351229.198 5  23554345.198
  23554344.594   -14115429.378 4 -10999034.835 6  21709020.514
  21709021.139    -7838390.370 2  -6107830.972 5  23196648.410    23196648.130
 03  7 27 12 21 30.0000000  0  8 07 09 11 14 20 23 28 31
                  -8923541.256 2  -6953407.707 5  22507686.239
  22507684.973    -4358246.709 2  -3396034.479 5  24151033.126
  24151031.954   -21741127.873 5 -16941128.598 8  20501695.862
  20501696.465    -8380259.881 2  -6530069.547 5  23087417.901
  23087418.341    -6102012.135 2  -4754810.247 5  23810917.961
  23810918.128    -6760089.068 1  -5267593.073 5  23574772.948
  23574768.217   -14071488.511 4 -10964795.260 6  21717382.299
  21717382.858    -7737960.536 2  -6029573.966 5  23215759.406    23215759.229
 03  7 27 12 22  0.0000000  0  8 07 09 11 14 20 23 28 31
                  -9023111.847 2  -7030995.140 5  22488738.536
  22488737.228    -4385684.048 2  -3417414.469 5  24145811.111
  24145811.274   -21742102.547 5 -16941888.095 8  20501509.401
  20501511.049    -8425616.145 2  -6565412.142 5  23078786.745
  23078786.949    -6213063.223 2  -4841343.559 5  23789785.513
  23789785.592    -6652406.369 1  -5183684.293 5  23595261.424
  23595260.385   -14026950.915 4 -10930090.683 6  21725857.453
  21725857.970    -7637298.089 2  -5951135.694 5  23234914.986    23234914.853
 03  7 27 12 22 30.0000000  0  8 07 09 11 14 20 23 28 31
                  -9122355.406 2  -7108327.768 5  22469853.056
  22469851.804    -4412583.448 2  -3438375.003 5  24140692.905
  24140691.800   -21742539.913 5 -16942228.885 8  20501427.206
  20501427.900    -8470393.587 2  -6600303.508 5  23070265.723
  23070265.607    -6323917.668 2  -4927723.593 5  23768690.808
  23768690.676    -6544378.201 1  -5099506.538 5  23615818.458
  23615817.478   -13981819.780 4 -10894923.573 6  21734445.754
  21734446.118    -7536406.372 2  -5872518.783 5  23254114.348    23254113.980
 03  7 27 12 23  0.0000000  0  8 07 09 11 14 20 23 28 31
                  -9221261.345 2  -7185397.282 5  22451031.787
  22451030.202    -4438936.582 2  -3458909.961 5  24135677.630
  24135677.459   -21742432.312 5 -16942145.045 8  20501446.529
  20501448.295    -8514582.570 2  -6634736.391 5  23061856.545
  23061857.663    -6434564.667 2  -5013941.941 5  23747634.868
  23747635.173    -6435999.521 1  -5015055.896 5  23636440.150
  23636441.045   -13936088.770 4 -10859288.977 6  21743147.965
  21743148.626    -7435279.317 2  -5793718.504 5  23273357.872    23273357.767
 03  7 27 12 23 30.0000000  0  8 07 09 11 14 20 23 28 31
                  -9319842.799 2  -7262214.031 5  22432272.350
  22432271.202    -4464757.855 2  -3479030.529 5  24130764.890
  24130764.051   -21741794.947 5 -16941648.408 8  20501568.916
  20501569.545    -8558196.781 2  -6668721.385 5  23053556.988
  23053557.974    -6545017.515 2  -5100009.032 5  23726616.952
  23726616.708    -6327288.011 1  -4930345.573 5  23657134.468
  23657127.369   -13889774.926 4 -10823200.295 6  21751961.315
  21751961.853    -7333934.189 2  -5714748.302 5  23292642.992    23292643.318
 03  7 27 12 24  0.0000000  0  8 07 09 11 14 20 23 28 31
                  -9418090.283 2  -7338770.547 5  22413576.954
  22413575.426    -4490038.885 2  -3498729.819 5  24125952.595
  24125952.932   -21740620.893 5 -16940733.556 8  20501791.348
  20501793.023    -8601227.871 2  -6702252.010 5  23045368.222
  23045369.081    -6655266.909 2  -5185917.660 5  23705636.681
  23705636.958    -6218241.887 1  -4845375.054 5  23677880.028
  23677879.123   -13842872.955 4 -10786653.295 6  21760886.452
  21760886.970    -7232366.101 2  -5635604.323 5  23311970.939    23311970.987
 03  7 27 12 24 30.0000000  0  8 07 09 11 14 20 23 28 31
                  -9516007.732 2  -7415069.882 5  22394943.737
  22394942.390    -4514785.939 1  -3518013.133 5  24121244.399
  24121242.871   -21738917.022 5 -16939405.890 8  20502116.544
  20502117.311    -8643680.642 2  -6735332.156 5  23037290.146
  23037290.530    -6765316.581 2  -5271670.597 5  23684696.407
  23684693.899    -6108868.400 1  -4760148.890 5  23698697.017
  23698691.621   -13795391.172 4 -10749654.486 6  21769921.866
  21769922.489    -7130583.158 2  -5556292.912 5  23331339.329    23331339.083
 03  7 27 12 25  0.0000000  0  8 07 09 11 14 20 23 28 31
                  -9613582.987 2  -7491102.503 5  22376375.872
  22376374.592    -4538988.852 2  -3536872.558 5  24116637.406
  24116638.544   -21736674.130 5 -16937658.234 8  20502542.517
  20502544.303    -8685543.472 2  -6767952.522 5  23029323.689
  23029323.945    -6875154.791 2  -5357258.736 5  23663793.868
  23663792.814    -5999161.203 1  -4674661.988 5  23719568.103
  23719567.413   -13747321.556 4 -10712197.629 6  21779069.235
  21779069.844    -7028577.988 2  -5476808.377 5  23350750.695    23350750.304
 03  7 27 12 25 30.0000000  0  8 07 09 11 14 20 23 28 31
                  -9710800.764 2  -7566856.601 5  22357875.705
  22357874.643    -4562633.392 2  -3555296.767 5  24112139.435
  24112138.149   -21733879.341 5 -16935480.472 8  20503075.292
  20503075.995    -8726801.707 2  -6800101.701 5  23021472.161
  23021472.666    -6984766.033 2  -5442670.012 5  23642935.442
  23642933.740    -5889113.334 1  -4588910.394 5  23740510.436
  23740509.463   -13698653.174 4 -10674274.251 6  21788330.616
  21788331.125    -6926339.390 2  -5397141.938 5  23370206.205    23370205.841
 03  7 27 12 26  0.0000000  0  8 07 09 11 14 20 23 28 31
                  -9807677.073 2  -7642344.640 5  22339440.491
  22339439.237    -4585737.680 2  -3573300.139 5  24107742.105
  24107742.424   -21730551.062 5 -16932886.949 8  20503707.612
  20503709.232    -8767472.326 2  -6831792.986 5  23013732.899
  23013733.193    -7094166.558 2  -5527917.151 5  23622116.941
  23622116.367    -5778744.527 1  -4502908.423 5  23761511.942
  23761512.259   -13649406.108 4 -10635899.960 6  21797701.997
  21797702.520    -6823887.753 2  -5317309.495 5  23389701.729    23389702.318
 03  7 27 12 26 30.0000000  0  8 07 09 11 14 20 23 28 31
                  -9904214.927 2  -7717568.973 5  22321070.003
  22321068.917    -4608306.213 2  -3590886.152 5  24103448.035
  24103447.503   -21726695.093 5 -16929882.242 8  20504442.310
  20504443.017    -8807559.365 2  -6863029.726 5  23006104.831
  23006105.171    -7203358.926 2  -5613002.063 5  23601338.127
  23601337.120    -5668063.913 1  -4416663.517 5  23782577.041
  23782573.461   -13599587.292 4 -10597080.113 6  21807182.279
  21807182.866    -6721230.372 2  -5237316.741 5  23409236.878    23409236.582
 03  7 27 12 27  0.0000000  0  8 07 09 11 14 20 23 28 31
                 -10000401.946 2  -7792519.925 5  22302766.420
  22302765.036    -4630328.005 2  -3608046.001 5  24099257.868
  24099256.560   -21722301.962 5 -16926459.009 8  20505277.301
  20505278.965    -8847051.386 2  -6893802.766 5  22998589.783
  22998590.371    -7312331.205 2  -5697915.469 5  23580601.118
  23580600.640    -5557065.248 1  -4330170.989 5  23803693.995
  23803693.861   -13549189.038 4 -10557808.744 6  21816772.721
  21816773.204    -6618359.467 2  -5157157.591 5  23428812.564    23428812.874
 03  7 27 12 27 30.0000000  0  8 07 09 11 14 20 23 28 31
                 -10096236.415 2  -7867196.137 5  22284529.920
  22284528.175    -4651803.626 2  -3624780.411 5  24095169.835
  24095170.315   -21717372.471 5 -16922617.787 8  20506216.231
  20506216.876    -8885947.172 2  -6924111.163 5  22991187.930
  22991188.810    -7421081.757 2  -5782656.132 5  23559906.799
  23559905.958    -5445752.527 1  -4243432.986 5  23824881.875
  23824877.448   -13498213.829 4 -10518087.806 6  21826473.009
  21826473.494    -6515277.770 2  -5076834.261 5  23448428.682    23448427.544
 03  7 27 12 28  0.0000000  0  8 07 09 11 14 20 23 28 31
                 -10191727.623 2  -7941604.844 5  22266358.371
  22266357.217    -4672743.721 2  -3641097.589 5  24091186.874
  24091185.226   -21711919.068 5 -16918368.365 8  20507252.970
  20507254.693    -8924257.617 2  -6953963.504 5  22983897.831
  22983898.587    -7529620.100 2  -5867231.437 5  23539252.650
  23539252.651    -5334141.339 1  -4156464.662 5  23846115.997
  23846116.546   -13446675.484 4 -10477928.071 6  21836280.452
  21836281.081    -6411998.915 2  -4996357.276 5  23468081.949    23468082.245
 03  7 27 12 28 30.0000000  0  8 07 09 11 14 20 23 28 31
                 -10286861.791 2  -8015735.357 5  22248254.979
  22248253.299    -4693136.110 2  -3656987.955 5  24087305.909
  24087305.437   -21705930.399 5 -16913701.827 8  20508393.602
  20508394.227    -8961969.625 2  -6983349.585 5  22976721.748
  22976722.320    -7637931.961 2  -5951630.241 5  23518641.450
  23518640.726    -5222222.164 1  -4069254.304 5  23867419.417
  23867415.260   -13394564.199 4 -10437321.877 6  21846196.913
  21846197.390    -6308513.249 2  -4915719.111 5  23487774.471    23487774.305
 03  7 27 12 29  0.0000000  0  8 07 09 11 14 20 23 28 31
                 -10381622.957 2  -8089575.156 5  22230222.313
  22230220.991    -4712966.974 2  -3672440.759 5  24083531.718
  24083532.296   -21699393.439 5 -16908608.088 8  20509636.473
  20509638.170    -8999067.948 2  -7012257.330 5  22969662.230
  22969662.905    -7746001.943 2  -6035840.588 5  23498076.388
  23498075.488    -5109986.659 1  -3981798.639 5  23888773.878
  23888772.722   -13341868.791 4 -10396260.482 6  21856224.413
  21856225.098    -6204809.607 2  -4834911.091 5  23507508.933    23507508.409
 03  7 27 12 29 30.0000000  0  8 07 09 11 14 20 23 28 31
                 -10476017.608 2  -8163129.412 6  22212260.035
  22212258.704    -4732244.473 2  -3687462.301 5  24079863.361
  24079863.455   -21692317.367 5 -16903094.236 8  20510984.003
  20510984.701    -9035559.868 2  -7040692.386 5  22962717.638
  22962718.057    -7853836.309 2  -6119867.324 5  23477556.099
  23477555.711    -4997443.858 1  -3894102.940 5  23910190.930
  23910189.564   -13288599.807 4 -10354752.129 6  21866361.135
  21866361.696    -6100898.696 2  -4753941.579 5  23527282.332    23527281.915
 03  7 27 12 30  0.0000000  0  8 07 09 11 14 20 23 28 31
                 -10570061.650 2  -8236410.476 6  22194364.055
  22194362.412    -4750986.227 2  -3702066.407 5  24076298.131
  24076297.043   -21684720.754 5 -16897174.789 8  20512428.572
  20512430.307    -9071462.567 2  -7068668.294 5  22955885.345
  22955885.826    -7961450.946 2  -6203722.852 5  23457078.243
  23457077.032    -4884616.842 1  -3806185.633 5  23931660.253
  23931659.257   -13234777.648 4 -10312812.813 6  21876603.285
  21876603.799    -5996800.634 2  -4672826.208 5  23547091.402    23547090.735
 03  7 27 12 30 30.0000000  0  8 07 09 11 14 20 23 28 31
                 -10663736.274 2  -8309403.705 6  22176538.316
  22176536.913    -4769175.209 2  -3716239.734 5  24072837.124
  24072835.811   -21676587.759 5 -16890837.406 8  20513977.162
  20513978.002    -9106757.967 2  -7096170.878 5  22949168.492
  22949169.485    -8068827.091 2  -6287392.574 5  23436645.077
  23436643.734    -4771493.390 1  -3718037.702 5  23953191.007
  23953185.297   -13180387.698 4 -10270431.022 6  21886953.197
  21886953.905    -5892501.112 2  -4591553.898 5  23566938.832    23566939.154
 03  7 27 12 31  0.0000000  0  8 07 09 11 14 20 23 28 31
                 -10757038.723 2  -8382106.898 6  22158783.472
  22158781.799    -4786810.958 2  -3729982.038 5  24069482.304
  24069480.110   -21667918.311 5 -16884081.977 8  20515625.926
  20515627.646    -9141445.657 2  -7123200.195 5  22942567.430
  22942568.381    -8175962.326 2  -6370874.596 5  23416257.564
  23416257.250    -4658075.580 1  -3629659.322 5  23974770.785
  23974768.026   -13125432.100 4 -10227608.492 6  21897410.912
  21897411.578    -5788001.899 2  -4510125.975 5  23586825.119    23586824.885
 03  7 27 12 31 30.0000000  0  8 07 09 11 14 20 23 28 31
                 -10849968.010 2  -8454519.291 6  22141099.454
  22141098.085    -4803894.389 2  -3743294.081 5  24066230.224
  24066230.011   -21658714.396 5 -16876910.089 8  20517378.401
  20517379.226    -9175524.993 2  -7149755.578 5  22936082.682
  22936083.488    -8282855.282 2  -6454167.802 5  23395916.376
  23395916.238    -4544367.539 1  -3541055.475 5  23996406.791
  23996406.341   -13069914.009 4 -10184347.699 6  21907975.690
  21907976.393    -5683306.305 2  -4428545.007 5  23606747.419    23606747.561
 03  7 27 12 32  0.0000000  0  8 07 09 11 14 20 23 28 31
                 -10942524.165 2  -8526640.955 6  22123486.686
  22123484.891    -4820426.688 2  -3756176.529 5  24063084.951
  24063084.387   -21648978.904 5 -16869323.996 8  20519230.097
  20519231.799    -9208996.455 2  -7175837.014 5  22929712.690
  22929713.762    -8389506.107 2  -6537272.345 5  23375621.161
  23375621.068    -4430375.408 1  -3452231.013 5  24018097.178
  24018098.040   -13013837.806 4 -10140651.991 6  21918646.783
  21918647.229    -5578418.634 1  -4346814.334 5  23626706.464    23626706.658
 03  7 27 12 32 30.0000000  0  8 07 09 11 14 20 23 28 31
                 -11034704.082 2  -8598469.439 6  22105945.513
  22105943.802    -4836407.262 2  -3768629.066 5  24060043.400
  24060042.135   -21638711.558 5 -16861323.487 8  20521184.881
  20521185.609    -9241859.018 2  -7201444.230 5  22923459.122
  22923460.441    -8495911.912 2  -6620185.921 5  23355373.069
  23355372.864    -4316102.721 1  -3363187.507 5  24039846.449
  24039844.194   -12957205.034 4 -10096522.576 6  21929423.611
  21929424.150    -5473340.191 1  -4264935.025 5  23646702.714    23646702.717
 03  7 27 12 33  0.0000000  0  8 07 09 11 14 20 23 28 31
                 -11126509.369 2  -8670006.006 6  22088475.515
  22088473.902    -4851839.706 2  -3780654.442 5  24057106.951
  24057106.476   -21627916.837 5 -16852912.028 8  20523238.058
  20523239.630    -9274114.924 2  -7226578.640 5  22917321.265
  22917322.189    -8602074.267 2  -6702909.784 5  23335171.087
  23335170.412    -4201555.266 1  -3273929.417 5  24061640.110
  24061641.412   -12900021.630 3 -10051964.034 6  21940305.166
  21940305.853    -5368077.218 2  -4182911.918 5  23666733.598    23666733.890
 03  7 27 12 33 30.0000000  0  8 07 09 11 14 20 23 28 31
                 -11217928.220 2  -8741241.456 6  22071078.983
  22071077.275    -4866713.831 2  -3792244.750 5  24054276.798
  24054277.112   -21616585.873 5 -16844082.714 8  20525395.305
  20525395.885    -9305753.715 2  -7251232.264 5  22911300.652
  22911301.475    -8707981.626 2  -6785434.931 5  23315017.656
  23315017.037    -4086727.331 1  -3184452.499 5  24083497.412
  24083491.192   -12842280.585 4 -10006970.997 6  21951292.934
  21951293.239    -5262622.279 2  -4100739.225 5  23686800.818    23686800.900
 03  7 27 12 34  0.0000000  0  7 07 09 11 14 20 28 31
                 -11308961.339 2  -8812176.295 6  22053755.388
  22053754.106    -4881032.719 2  -3803402.494 5  24051552.538
  24051552.610   -21604721.967 5 -16834838.115 8  20527651.971
  20527653.456    -9336777.504 2  -7275406.719 5  22905397.387
  22905398.336    -8813634.696 2  -6867761.939 5  23294912.495
  23294912.127   -12783987.040 3  -9961547.492 6  21962385.786
  21962386.370    -5156980.436 1  -4018420.894 5  23706904.271    23706903.148
 03  7 27 12 34 30.0000000  0  7 07 09 11 14 20 28 31
                 -11399603.275 3  -8882806.316 6  22036507.077
  22036505.928    -4894792.518 2  -3814124.546 5  24048932.958
  24048932.790   -21592322.686 5 -16825176.299 8  20530012.340
  20530013.149    -9367181.615 2  -7299098.212 5  22899611.642
  22899612.222    -8919027.941 2  -6949886.515 5  23274857.012
  23274856.454   -12725139.976 3  -9915692.630 6  21973584.003
  21973584.661    -5051150.517 1  -3935955.997 5  23727042.860    23727042.498
 03  7 27 12 35  0.0000000  0  7 07 09 11 14 20 28 31
                 -11489853.845 3  -8953131.429 6  22019332.982
  22019331.643    -4907994.996 2  -3824412.283 5  24046421.347
  24046420.453   -21579390.820 5 -16815099.522 8  20532472.239
  20532473.947    -9396967.384 2  -7322308.012 5  22893943.430
  22893944.089    -9024161.222 2  -7031808.551 5  23254850.560
  23254850.123   -12665743.537 4  -9869409.691 6  21984886.938
  21984887.205    -4945136.650 1  -3853347.748 5  23747216.186    23747215.868
 03  7 27 12 35 30.0000000  0  8 07 09 11 14 20 23 28 31
                 -11579712.252 3  -9023150.987 6  22002233.610
  22002231.830    -4920641.598 2  -3834266.845 5  24044013.893
  24044014.420   -21565928.490 5 -16804609.358 8  20535034.928
  20535035.676    -9426135.108 2  -7345036.153 5  22888392.920
  22888393.870    -9129033.730 2  -7113527.363 5  23234893.994
  23234893.686           -.97511         -.58415  24171411.857
  24171410.588   -12605801.777 3  -9822701.822 6  21996293.394
  21996293.793    -4838942.633 1  -3770599.175 5  23767424.156    23767424.393
 03  7 27 12 36  0.0000000  0  8 07 09 11 14 20 23 28 31
                 -11669177.153 3  -9092863.918 6  21985208.832
  21985207.571    -4932732.801 2  -3843688.589 5  24041714.359
  24041712.956   -21551937.319 5 -16793707.115 8  20537696.420
  20537698.034    -9454684.277 2  -7367282.139 5  22882960.441
  22882960.780    -9233644.221 2  -7195042.045 5  23214986.999
  23214986.410      116164.480 1     90517.962 5  24193519.396
  24193517.590   -12545317.720 3  -9775571.388 6  22007803.230
  22007803.776    -4732571.362 1  -3687712.475 5  23787666.045    23787665.576
 03  7 27 12 36 30.0000000  0  8 07 09 11 14 20 23 28 31
                 -11758246.216 3  -9162268.384 6  21968259.495
  21968258.339    -4944268.776 2  -3852677.644 5  24039516.986
  24039516.929   -21537418.154 5 -16782393.445 8  20540460.287
  20540460.920    -9482614.739 2  -7389046.131 5  22877645.083
  22877645.573    -9337990.731 2  -7276351.043 5  23195130.209
  23195130.078      232585.338 1    181236.930 5  24215675.036
  24215672.589   -12484294.116 3  -9728020.593 6  22019415.707
  22019416.445    -4626025.119 1  -3604689.411 5  23807941.465    23807941.173
 03  7 27 12 37  0.0000000  0  8 07 09 11 14 20 23 28 31
                 -11846915.542 3  -9231361.349 6  21951386.302
  21951385.159    -4955247.419 2  -3861232.337 5  24037429.996
  24037428.404   -21522369.931 5 -16770667.553 8  20543322.932
  20543324.559    -9509923.516 2  -7410325.657 5  22872448.321
  22872448.995    -9442069.083 2  -7357451.055 5  23175324.996
  23175324.629      349260.822 1    272155.078 4  24237872.370
  24237874.425   -12422731.189 3  -9680049.456 6  22031130.720
  22031131.244    -4519304.215 1  -3521530.251 5  23828249.919    23828249.378
 03  7 27 12 37 30.0000000  0  8 07 09 11 14 20 23 28 31
                 -11935190.323 3  -9300146.889 6  21934588.042
  21934586.999    -4965676.053 2  -3869358.474 5  24035444.554
  24035443.668   -21506800.584 5 -16758535.616 8  20546286.648
  20546287.218    -9536617.175 2  -7431125.924 5  22867368.679
  22867370.095    -9545884.567 2  -7438346.301 5  23155569.848
  23155569.533      466179.018 1    363260.372 5  24260125.926
  24260122.767   -12360638.891 3  -9631665.805 6  22042946.339
  22042946.663    -4412418.234 1  -3438242.465 5  23848589.138    23848589.075
 03  7 27 12 38  0.0000000  0  8 07 09 11 14 20 23 28 31
                 -12023064.767 3  -9368620.465 6  21917866.053
  21917864.936    -4975551.081 2  -3877053.248 5  24033566.424
  24033564.838   -21490707.387 5 -16745995.453 8  20549348.191
  20549349.646    -9562691.325 2  -7451443.426 5  22862406.673
  22862407.506    -9649431.180 2  -7519031.987 5  23135865.537
  23135865.663      583341.465 1    454556.007 4  24282418.390
  24282419.208   -12298016.157 3  -9582868.828 6  22054862.900
  22054863.503    -4305365.746 1  -3354824.936 5  23868961.171    23868960.919
 03  7 27 12 38 30.0000000  0  8 07 09 11 14 20 23 28 31
                 -12110526.657 3  -9436772.530 6  21901222.753
  21901221.192    -4984862.338 2  -3884308.592 5  24031794.042
  24031793.728   -21474081.047 5 -16733039.856 8  20552512.976
  20552513.523    -9588135.277 2  -7471269.931 5  22857565.400
  22857566.346    -9752697.019 2  -7599498.849 5  23116214.923
  23116214.561      700753.893 1    546046.301 3  24304762.521
  24304761.080   -12234855.449 3  -9533652.637 6  22066882.131
  22066882.659    -4198139.079 1  -3271271.659 5  23889365.600    23889364.757
 03  7 27 12 39  0.0000000  0  8 07 09 11 14 20 23 28 31
                 -12197576.342 3  -9504603.326 6  21884657.603
  21884656.251    -4993612.913 2  -3891127.168 5  24030128.069
  24030127.921   -21456925.343 5 -16719671.774 8  20555776.674
  20555778.216    -9612950.719 2  -7490606.645 5  22852842.824
  22852843.862    -9855682.676 2  -7679747.383 5  23096617.303
  23096616.689      818410.460 1    637726.824 5  24327151.699
  24327150.591   -12171162.041 3  -9484021.465 6  22079002.548
  22079003.096    -4090743.022 1  -3187586.397 5  23909801.751    23909800.962
 03  7 27 12 39 30.0000000  0  8 07 09 11 14 20 23 28 31
                 -12284215.956 3  -9572114.476 6  21868170.450
  21868169.360    -5001806.993 2  -3897512.259 5  24028569.489
  24028568.870   -21439245.122 5 -16705894.935 8  20559141.941
  20559142.615    -9637141.125 2  -7509456.273 5  22848239.454
  22848240.458    -9958390.065 2  -7759779.075 5  23077072.762
  23077072.202      936303.262 1    729591.435 5  24349585.680
  24349584.772   -12106942.289 3  -9433980.096 6  22091223.076
  22091223.683    -3983184.020 1  -3103774.156 5  23930269.886    23930269.353
 03  7 27 12 40  0.0000000  0  8 07 09 11 14 20 23 28 31
                 -12370433.474 3  -9639296.793 6  21851763.614
  21851762.604    -5009434.560 2  -3903456.010 5  24027117.628
  24027117.639   -21421031.437 5 -16691702.383 8  20562607.006
  20562608.532    -9660695.919 2  -7527810.617 5  22843757.072
  22843758.295   -10060807.203 2  -7839584.613 5  23057583.293
  23057583.399     1054439.094 1    821645.339 5  24372065.568
  24372066.075   -12042188.964 3  -9383522.969 6  22103545.167
  22103545.817    -3875454.239 1  -3019828.882 5  23950770.468    23950769.250
 03  7 27 12 40 30.0000000  0  8 07 09 11 14 20 23 28 31
                 -12456224.225 3  -9706146.681 6  21835438.473
  21835436.967    -5016492.607 2  -3908955.883 5  24025775.312
  24025774.369   -21402282.392 5 -16677092.653 8  20566175.573
  20566176.247    -9683611.825 2  -7545667.225 5  22839396.776
  22839397.603   -10162929.230 2  -7919160.166 5  23038150.047
  23038149.399     1172817.347 1    913888.109 4  24394592.431
  24394592.617   -11976901.592 3  -9332649.696 6  22115969.093
  22115969.626    -3767553.293 1  -2935750.244 5  23971303.302    23971302.980
 03  7 27 12 41  0.0000000  0  8 07 09 11 14 20 23 28 31
                 -12541603.061 3  -9772675.548 6  21819191.069
  21819189.850    -5022998.585 2  -3914025.509 5  24024536.651
  24024536.927   -21383016.087 5 -16662079.901 8  20569840.905
  20569842.463    -9705905.149 2  -7563038.669 5  22835154.671
  22835154.773   -10264771.196 2  -7998517.422 5  23018769.608
  23018769.934     1291417.553 1   1006304.022 2  24417160.005
  24417161.927   -11911100.389 3  -9281376.010 6  22128490.629
  22128491.270    -3659500.690 1  -2851553.481 5  23991865.063    23991864.319
 03  7 27 12 41 30.0000000  0  7 07 09 11 14 20 28 31
                 -12626564.609 3  -9838879.285 6  21803023.392
  21803022.014    -5028949.376 2  -3918662.535 5  24023405.104
  24023403.822   -21363230.380 5 -16646662.446 8  20573606.805
  20573607.577    -9727572.099 2  -7579921.999 5  22831031.484
  22831032.092   -10366327.941 2  -8077652.493 5  22999444.166
  22999443.944   -11844784.565 3  -9229701.315 6  22141110.129
  22141110.581    -3551295.228 1  -2767237.560 5  24012455.302    24012455.316
 03  7 27 12 42  0.0000000  0  7 07 09 11 14 20 28 31
                 -12711104.292 3  -9904754.199 6  21786935.769
  21786934.591    -5034342.785 2  -3922865.210 5  24022377.534
  24022377.487   -21342923.873 5 -16630839.185 8  20577470.139
  20577471.796    -9748610.344 2  -7596315.633 5  22827028.222
  22827028.867   -10467594.743 2  -8156561.586 5  22980173.919
  22980173.658   -11777954.445 3  -9177625.945 6  22153827.526
  22153828.028    -3442936.926 1  -2682802.545 5  24033075.542    24033074.494
 03  7 27 12 42 30.0000000  0  7 07 09 11 14 20 28 31
                 -12795208.510 3  -9970289.861 6  21770931.130
  21770929.930    -5039166.911 2  -3926624.241 5  24021460.653
  24021459.758   -21322085.796 5 -16614601.713 8  20581436.253
  20581437.046    -9769006.763 2  -7612209.076 5  22823147.145
  22823147.592   -10568558.078 2  -8235234.214 5  22960961.367
  22960960.781   -11710600.808 3  -9125142.617 6  22166644.557
  22166645.080    -3334416.183 1  -2598240.964 5  24053726.138    24053724.387
 03  7 27 12 43  0.0000000  0  7 07 09 11 14 20 28 31
                 -12878886.938 3 -10035493.813 6  21755007.726
  21755006.549    -5043434.124 1  -3929949.232 5  24020647.083
  24020646.939   -21300728.401 5 -16597959.569 8  20585499.702
  20585501.305    -9788772.659 2  -7627611.080 5  22819385.932
  22819386.640   -10669227.760 2  -8313678.076 5  22941804.526
  22941803.732   -11642738.064 3  -9072262.556 6  22179558.413
  22179558.814    -3225747.165 1  -2513563.868 5  24074406.014    24074404.799
 03  7 27 12 43 30.0000000  0  7 07 09 11 14 20 28 31
                 -12962143.532 3 -10100369.053 6  21739164.441
  21739163.398    -5047150.958 2  -3932845.407 5  24019941.203
  24019938.943   -21278859.306 5 -16580918.688 8  20589661.926
  20589662.812    -9807914.131 2  -7642526.555 5  22815743.203
  22815743.872   -10769607.874 2  -8391896.342 5  22922702.700
  22922702.169   -11574375.094 3  -9018992.691 6  22192567.304
  22192567.593    -3116938.173 1  -2428777.683 5  24095111.574    24095110.728
 03  7 27 12 44  0.0000000  0  7 07 09 11 14 20 28 31
                 -13044965.174 3 -10164905.407 6  21723404.092
  21723402.798    -5050306.461 2  -3935304.196 5  24019339.004
  24019339.429   -21256468.261 5 -16563471.090 8  20593922.164
  20593923.708    -9826419.241 2  -7656946.028 5  22812221.839
  22812222.559   -10869685.030 2  -8469878.540 5  22903658.694
  22903657.960   -11505503.464 3  -8965326.466 6  22205673.056
  22205673.678    -3007980.331 1  -2343875.504 5  24115845.488    24115845.266
 03  7 27 12 44 30.0000000  0  7 07 09 11 14 20 28 31
                 -13127335.337 3 -10229089.926 6  21707729.441
  21707728.448    -5052886.173 2  -3937314.263 5  24018848.346
  24018848.511   -21233542.293 5 -16545606.688 8  20598285.443
  20598286.330    -9844273.216 2  -7670858.114 5  22808824.018
  22808824.867   -10969442.871 2  -8547611.897 5  22884675.251
  22884674.801   -11436111.517 3  -8911254.845 6  22218878.029
  22218878.784    -2898861.683 1  -2258848.000 5  24136609.586    24136609.361
 03  7 27 12 45  0.0000000  0  7 07 09 11 14 20 28 31
                 -13209273.340 3 -10292937.614 6  21692137.102
  21692136.064    -5054912.332 2  -3938893.026 5  24018462.911
  24018462.186   -21210103.560 5 -16527342.741 8  20602745.149
  20602746.626    -9861497.700 2  -7684279.740 5  22805546.537
  22805547.074   -11068900.904 2  -8625111.639 5  22865748.996
  22865748.719   -11366223.570 3  -8856796.720 6  22232177.244
  22232177.878    -2789606.123 1  -2173713.906 5  24157400.712    24157399.586
 03  7 27 12 45 30.0000000  0  7 07 09 11 14 20 28 31
                 -13290769.629 3 -10356441.145 6  21676628.933
  21676627.725    -5056377.506 2  -3940034.713 5  24018182.088
  24018182.876   -21186145.507 5 -16508674.125 8  20607304.756
  20607305.630    -9878083.864 2  -7697203.881 5  22802389.875
  22802390.801   -11168049.404 3  -8702370.192 5  22846881.581
  22846881.326   -11295834.516 3  -8801948.125 6  22245571.871
  22245572.295    -2680208.051 1  -2088468.807 5  24178219.395    24178219.188
 03  7 27 12 46  0.0000000  0  7 07 09 11 14 20 28 31
                 -13371820.657 3 -10419597.763 6  21661205.419
  21661204.273    -5057280.411 2  -3940738.277 5  24018011.105
  24018011.982   -21161667.634 5 -16489600.449 8  20611962.155
  20611963.559    -9894030.455 2  -7709629.747 5  22799355.424
  22799356.030   -11266884.887 2  -8779384.837 5  22828073.764
  22828073.916   -11224945.682 3  -8746710.090 6  22259061.594
  22259062.038    -2570668.228 1  -2003113.173 5  24199063.289    24199063.429
 03  7 27 12 46 30.0000000  0  7 07 09 11 14 20 28 31
                 -13452418.177 3 -10482401.032 6  21645868.138
  21645867.481    -5057615.027 1  -3940998.955 5  24017949.184
  24017948.500   -21136665.308 5 -16470118.129 8  20616720.520
  20616721.436    -9909330.912 2  -7721552.128 5  22796443.839
  22796444.723   -11365399.093 3  -8856149.131 5  22809327.223
  22809326.971   -11153553.502 3  -8691079.806 6  22272647.213
  22272647.773    -2460982.792 1  -1917644.106 5  24219935.615    24219934.776
 03  7 27 12 47  0.0000000  0  7 07 09 11 14 20 28 31
                 -13532568.019 4 -10544855.412 6  21630616.158
  21630615.307    -5057390.167 2  -3940823.678 5  24017991.471
  24017989.619   -21111147.232 5 -16450233.881 8  20621575.859
  20621577.302    -9923992.868 2  -7732977.034 5  22793653.703
  22793654.236   -11463598.020 3  -8932667.772 5  22790640.611
  22790640.023   -11081669.028 3  -8635065.939 6  22286326.281
  22286326.757    -2351161.828 1  -1832069.401 5  24240834.353    24240834.613
 03  7 27 12 47 30.0000000  0  7 07 09 11 14 20 28 31
                 -13612270.403 3 -10606961.098 6  21615449.069
  21615448.133    -5056608.307 1  -3940214.400 5  24018139.994
  24018139.704   -21085116.720 5 -16429950.359 8  20626529.691
  20626530.727    -9938018.265 2  -7743905.984 5  22790984.948
  22790985.458   -11561482.332 3  -9008941.350 5  22772013.749
  22772013.476   -11009297.234 3  -8578672.407 6  22300098.272
  22300098.943    -2241209.886 1  -1746392.566 5  24261757.568    24261755.953
 03  7 27 12 48  0.0000000  0  7 07 09 11 14 20 28 31
                 -13691524.317 3 -10668717.391 6  21600367.653
  21600366.650    -5055270.766 2  -3939172.130 5  24018394.998
  24018394.089   -21058575.767 5 -16409269.047 8  20631579.894
  20631581.324    -9951407.640 2  -7754339.332 5  22788436.899
  22788437.800   -11659050.016 3  -9084968.106 5  22753447.199
  22753446.978   -10936441.524 3  -8521901.757 6  22313962.479
  22313962.659    -2131130.154 1  -1660616.152 5  24282704.538    24282705.342
 03  7 27 12 48 30.0000000  0  8 07 09 11 14 20 23 28 31
                 -13770324.047 4 -10730119.731 6  21585372.427
  21585371.676    -5053374.560 1  -3937694.508 5  24018754.978
  24018755.049   -21031522.168 5 -16388188.316 8  20636728.227
  20636729.437    -9964157.309 2  -7764274.155 5  22786010.847
  22786011.500   -11756296.069 3  -9160744.214 5  22734941.753
  22734941.654           -.24811         -.80215  24760531.472
  24760530.446   -10863101.202 3  -8464753.384 6  22327918.411
  22327918.763    -2020921.654 1  -1574739.421 5  24303677.000    24303675.695
 03  7 27 12 49  0.0000000  0  8 07 09 11 14 20 23 28 31
                 -13848669.418 4 -10791168.086 6  21570463.826
  21570463.026    -5050921.478 2  -3935782.940 5  24019223.152
  24019222.990   -21003958.638 5 -16366710.205 8  20641973.146
  20641974.680    -9976268.735 2  -7773711.707 5  22783706.302
  22783706.398   -11853219.908 3  -9236269.226 5  22716498.064
  22716497.604      121848.438 1     94946.334 3  24783718.321
  24783717.656   -10789280.921 3  -8407231.006 6  22341965.885
  22341966.261    -1910588.155 1  -1488765.349 5  24324672.386    24324673.487
 03  7 27 12 49 30.0000000  0  8 07 09 11 14 20 23 28 31
                 -13926558.243 4 -10851860.739 6  21555642.008
  21555641.180    -5047912.170 1  -3933437.933 5  24019793.894
  24019794.032   -20975886.182 5 -16344835.565 8  20647315.283
  20647316.623    -9987741.659 2  -7782651.790 5  22781522.847
  22781523.881   -11949819.582 3  -9311541.627 5  22698115.502
  22698115.111      243871.321 1    190029.111 3  24806938.484
  24806937.517   -10714983.573 3  -8349336.986 6  22356104.019
  22356104.598    -1800131.879 1  -1402695.668 5  24345691.917    24345690.498
 03  7 27 12 50  0.0000000  0  8 07 09 11 14 20 23 28 31
                 -14003966.243 3 -10912178.704 6  21540911.876
  21540910.693    -5044324.715 2  -3930642.423 5  24020478.147
  24020476.491   -20947283.612 5 -16322547.844 8  20652758.206
  20652759.454    -9998553.173 2  -7791076.263 5  22779465.474
  22779465.967   -12046070.919 3  -9386542.619 5  22679799.454
  22679799.525      366087.510 1    285262.542    24830196.129
  24830195.099   -10640189.515 3  -8291055.930 6  22370337.063
  22370337.667    -1689532.584 1  -1316514.492 5  24366738.574    24366738.892
 03  7 27 12 50 30.0000000  0  7 07 09 11 14 20 28 31
                 -14080910.309 3 -10972135.220 6  21526269.838
  21526269.005    -5040178.694 2  -3927411.694 5  24021266.664
  24021266.294   -20918171.173 5 -16299862.855 8  20658298.030
  20658299.376   -10008722.889 2  -7799000.858 5  22777530.173
  22777531.398   -12141990.735 3  -9461285.349 5  22661546.538
  22661546.714   -10564920.376 3  -8232404.658 6  22384660.244
  22384660.696    -1578811.692 1  -1230238.650 5  24387807.739    24387807.631
 03  7 27 12 51  0.0000000  0  8 07 09 11 14 20 23 28 31
                 -14157387.946 4 -11031728.167 6  21511716.779
  21511715.718    -5035474.685 2  -3923746.244 5  24022162.699
  24022161.902   -20888550.065 5 -16276781.460 8  20663934.863
  20663936.088   -10018249.801 2  -7806424.389 5  22775717.266
  22775718.519   -12237576.828 3  -9535768.038 5  22643357.091
  22643356.924           -.28911         -.8211   24876807.168
  24876804.399   -10489179.127 3  -8173385.507 6  22399073.330
  22399073.695    -1467971.173 1  -1143869.545 5  24408899.831    24408899.815
 03  7 27 12 51 30.0000000  0  7 07 09 11 14 20 28 31
                 -14233388.927 4 -11090949.704 6  21497254.155
  21497253.075    -5030204.620 2  -3919639.740 5  24023164.825
  24023163.819   -20858412.744 5 -16253297.788 8  20669669.689
  20669671.012   -10027125.328 2  -7813340.243 5  22774028.666
  22774029.356   -12332818.873 3  -9609982.626 5  22625233.226
  22625232.827   -10412960.163 3  -8113994.139 6  22413577.274
  22413577.466    -1357004.685 1  -1057402.265 5  24430017.284    24430016.241
 03  7 27 12 52  0.0000000  0  7 07 09 11 14 20 28 31
                 -14308921.300 4 -11149806.084 6  21482880.877
  21482879.704    -5024378.915 2  -3915100.239 5  24024274.358
  24024272.937   -20827770.394 5 -16229420.611 8  20675500.767
  20675502.036   -10035360.130 2  -7819757.001 5  22772461.613
  22772462.064   -12427724.572 3  -9683935.074 5  22607173.097
  22607173.099   -10336276.078 3  -8054240.319 6  22428169.871
  22428170.335    -1245924.177 1   -970846.002 5  24451154.321    24451153.824
 03  7 27 12 52 30.0000000  0  7 07 09 11 14 20 28 31
                 -14383991.233 4 -11208302.109 6  21468595.569
  21468594.378    -5018006.593 2  -3910134.815 5  24025484.969
  24025485.259   -20796632.782 5 -16205157.601 8  20681426.138
  20681427.450   -10042961.702 2  -7825680.126 5  22771015.032
  22771015.474   -12522300.528 3  -9757630.572 5  22589175.853
  22589175.900   -10259138.115 3  -7994132.759 6  22442848.674
  22442849.132    -1134740.695 1   -884209.528 5  24472312.025    24472310.936
 03  7 27 12 53  0.0000000  0  7 07 09 11 14 20 28 31
                 -14458564.185 4 -11266410.876 6  21454404.802
  21454403.515    -5011055.413 2  -3904718.309 5  24026809.168
  24026807.961   -20764968.367 5 -16180484.106 8  20687451.752
  20687452.955   -10049898.148 2  -7831085.160 5  22769694.759
  22769695.467   -12616512.078 3  -9831042.169 5  22571248.101
  22571248.169   -10181516.739 3  -7933648.543 6  22457619.511
  22457620.015    -1023423.499 1   -797468.787 5  24493495.674    24493495.630
 03  7 27 12 53 30.0000000  0  7 07 09 11 14 20 28 31
                 -14532657.526 4 -11324145.888 6  21440305.293
  21440304.240    -5003545.802 2  -3898866.653 5  24028236.600
  24028237.334   -20732797.712 5 -16155415.991 8  20693573.465
  20693574.675   -10056188.188 2  -7835986.403 5  22768497.821
  22768498.380   -12710376.573 3  -9904183.278 6  22553386.183
  22553386.109   -10103434.326 3  -7872805.213 6  22472478.250
  22472478.485     -911994.804 1   -710641.197 5  24514699.681    24514697.577
 03  7 27 12 54  0.0000000  0  7 07 09 11 14 20 28 31
                 -14606281.238 4 -11381514.928 6  21426295.091
  21426294.073    -4995490.037 2  -3892589.451 5  24029772.549
  24029769.597   -20700134.148 5 -16129963.824 8  20699789.096
  20699790.357   -10061844.280 2  -7840393.705 5  22767421.532
  22767422.291   -12803904.026 3  -9977061.770 6  22535588.603
  22535588.099   -10024905.250 3  -7811613.762 5  22487421.703
  22487422.282     -800468.503 1   -623737.586 5  24535921.772    24535920.982
 03  7 27 12 54 30.0000000  0  7 07 09 11 14 20 28 31
                 -14679421.594 4 -11438507.428 6  21412376.960
  21412375.813    -4986876.736 2  -3885877.784 5  24031409.424
  24031408.269   -20666966.575 5 -16104118.959 8  20706100.711
  20706101.861   -10066854.243 2  -7844297.498 5  22766468.002
  22766468.331   -12897080.449 3 -10049666.757 6  22517857.560
  22517857.325    -9945920.698 3  -7750067.360 5  22502452.150
  22502452.560     -688834.714 1   -536750.202 5  24557165.073    24557164.580
 03  7 27 12 55  0.0000000  0  7 07 09 11 14 20 28 31
                 -14752064.446 4 -11495112.242 6  21398553.647
  21398552.230    -4977694.800 2  -3878723.010 5  24033157.851
  24033155.865   -20633284.486 5 -16077873.154 8  20712510.123
  20712511.448   -10071206.396 2  -7847688.804 5  22765639.803
  22765640.679   -12989891.757 3 -10121987.232 6  22500196.152
  22500195.643    -9866471.728 2  -7688159.076 5  22517570.801
  22517571.174     -577084.093 1   -449671.840 5  24578430.731    24578430.580
 03  7 27 12 55 30.0000000  0  7 07 09 11 14 20 28 31
                 -14824220.814 4 -11551337.915 6  21384822.626
  21384821.369    -4967958.089 2  -3871135.905 5  24035009.017
  24035008.245   -20599102.532 5 -16051237.853 8  20719014.679
  20719015.993   -10074913.888 2  -7850577.781 5  22764934.424
  22764935.182   -13082349.465 3 -10194032.223 5  22482602.014
  22482601.515    -9786574.089 3  -7625901.140 5  22532774.843
  22532775.333     -465231.764 1   -362514.256 5  24599716.576    24599714.555
 03  7 27 12 56  0.0000000  0  7 07 09 11 14 20 28 31
                 -14895894.017 4 -11607187.108 6  21371183.573
  21371182.379    -4957672.373 2  -3863121.055 5  24036967.985
  24036967.007   -20564426.864 5 -16024217.850 8  20725613.263
  20725614.594   -10077981.898 2  -7852968.419 5  22764350.103
  22764351.224   -13174456.194 3 -10265803.710 5  22465074.389
  22465074.610    -9706236.255 2  -7563300.322 5  22548062.510
  22548062.991     -353284.887 1   -275283.003 5  24621019.050    24621017.830
 03  7 27 12 56 30.0000000  0  7 07 09 11 14 20 28 31
                 -14967068.086 4 -11662647.403 6  21357639.598
  21357638.554    -4946824.425 2  -3854668.128 5  24039031.377
  24039031.457   -20529244.764 5 -15996803.231 8  20732308.141
  20732309.649   -10080396.531 2  -7854849.906 5  22763890.993
  22763891.536   -13266196.317 3 -10337289.494 5  22447616.799
  22447617.036    -9625447.307 2  -7500347.981 5  22563436.087
  22563436.647     -241231.763 1   -187968.867 5  24642342.020    24642340.571
 03  7 27 12 57  0.0000000  0  7 07 09 11 14 20 28 31
                 -15037739.816 4 -11717716.266 6  21344191.100
  21344190.127    -4935413.550 2  -3845776.456 5  24041203.737
  24041202.720   -20493556.511 5 -15968994.208 8  20739099.462
  20739100.812   -10082156.862 2  -7856221.618 5  22763556.297
  22763556.810   -13357566.733 3 -10408487.280 6  22430229.754
  22430229.913    -9544208.196 2  -7437044.753 5  22578895.594
  22578896.286     -129073.463 1   -100572.914 4  24663684.952    24663683.414
 03  7 27 12 57 30.0000000  0  7 07 09 11 14 20 28 31
                 -15107925.360 4 -11772406.319 6  21330835.330
  21330834.440    -4923458.717 1  -3836460.980 5  24043477.530
  24043476.131   -20457381.018 5 -15940805.526 8  20745983.396
  20745984.866   -10083280.796 2  -7857097.412 5  22763342.135
  22763342.928   -13448582.840 3 -10479408.831 6  22412909.956
  22412909.958    -9462540.341 2  -7373407.493 5  22594436.446
  22594436.942      -16830.048 1    -13110.537 4  24685043.326    24685043.210
 03  7 27 12 58  0.0000000  0  7 07 09 11 14 20 28 31
                 -15177609.495 4 -11826705.599 6  21317574.659
  21317573.693    -4910948.003 1  -3826712.433 5  24045857.960
  24045857.224   -20420706.244 5 -15912227.772 8  20752962.324
  20752963.715   -10083755.996 2  -7857467.783 5  22763251.636
  22763252.664   -13539229.962 3 -10550042.819 6  22395660.239
  22395660.308    -9380433.600 2  -7309428.243 5  22610061.003
  22610061.037       95509.585       74426.858 3  24706421.107    24706419.898
 03  7 27 12 58 30.0000000  0  7 07 09 11 14 20 28 31
                 -15246779.201 4 -11880604.098 6  21304412.259
  21304411.184    -4897870.842 1  -3816522.458 5  24048346.371
  24048346.306   -20383523.260 5 -15883254.002 8  20760038.139
  20760039.512   -10083570.677 2  -7857323.279 5  22763287.190
  22763287.371   -13629495.058 3 -10620379.159 6  22378483.420
  22378483.138    -9297879.411 2  -7245100.262 5  22625770.392
  22625770.923      207953.997 1    162045.911 3  24727816.959    24727820.738
 03  7 27 12 59  0.0000000  0  7 07 09 11 14 20 28 31
                 -15315430.734 4 -11934098.775 6  21291348.175
  21291347.346    -4884226.122 1  -3805890.200 5  24050943.808
  24050942.674   -20345831.121 5 -15853883.494 8  20767210.728
  20767212.051   -10082724.214 2  -7856663.716 5  22763448.202
  22763448.584   -13719374.527 3 -10690415.044 6  22361379.787
  22361379.372    -9214879.531 2  -7180424.992 5  22641564.679
  22641565.205      320502.891      249746.390 3  24749234.774    24749233.288
